EW7146 Weather Reports


time (UTC)temp
C
wind
direction
speed
KPH
gust
KPH
rain 1hr
cm
rain 24hr
cm
rain mn
cm
humidity
%
barometer
mb
20260903050041 16 207 0.0 3.2 0.00 0.00 0.00 57 1017.2
20260903045540 16 175 1.6 6.4 0.00 0.00 0.00 57 1017.2
20260903045039 16 113 3.2 6.4 0.00 0.00 0.00 57 1017.2
20260903044547 16 166 1.6 4.8 0.00 0.00 0.00 57 1017.1
20260903044304 16 140 3.2 6.4 0.00 0.00 0.00 57 1017.1
20260903043541 16 128 3.2 6.4 0.00 0.00 0.00 56 1017.0
20260903043040 16 118 3.2 6.4 0.00 0.00 0.00 56 1016.9
20260903042541 16 121 1.6 4.8 0.00 0.00 0.00 56 1017.0
20260903042044 16 145 1.6 4.8 0.00 0.00 0.00 55 1017.0
20260903041540 16 124 3.2 8.0 0.00 0.00 0.00 55 1017.0
20260903041040 16 90 3.2 8.0 0.00 0.00 0.00 54 1017.0
20260903040539 16 123 3.2 8.0 0.00 0.00 0.00 54 1017.0
20260903040043 16 123 3.2 9.7 0.00 0.00 0.00 53 1016.8
20260903035544 17 113 3.2 17.7 0.00 0.00 0.00 53 1016.7
20260903035041 17 114 6.4 17.7 0.00 0.00 0.00 52 1016.7
20260903034800 17 137 6.4 11.3 0.00 0.00 0.00 53 1016.4
20260903034040 17 124 4.8 11.3 0.00 0.00 0.00 53 1016.5
20260903033538 17 72 3.2 8.0 0.00 0.00 0.00 54 1016.4
20260903033306 17 109 0.0 8.0 0.00 0.00 0.00 54 1016.3
20260903032539 17 113 3.2 8.0 0.00 0.00 0.00 53 1016.3
20260903032038 17 86 1.6 11.3 0.00 0.00 0.00 53 1016.2
20260903031539 17 121 3.2 11.3 0.00 0.00 0.00 52 1016.2
20260903031038 17 78 4.8 11.3 0.00 0.00 0.00 51 1016.2
20260903030539 17 97 1.6 11.3 0.00 0.00 0.00 50 1016.1
20260903030038 17 104 3.2 11.3 0.00 0.00 0.00 50 1016.1
20260903025537 17 113 4.8 9.7 0.00 0.00 0.00 49 1016.1
20260903025037 18 118 3.2 14.5 0.00 0.00 0.00 48 1016.0
20260903024538 18 106 3.2 14.5 0.00 0.00 0.00 48 1016.1
20260903024037 18 161 4.8 14.5 0.00 0.00 0.00 47 1016.1
20260903023537 18 87 4.8 20.9 0.00 0.00 0.00 46 1016.1
20260903023038 18 110 4.8 30.6 0.00 0.00 0.00 45 1016.1
20260903022537 19 123 9.7 30.6 0.00 0.00 0.00 44 1016.0
20260903022039 19 140 14.5 29.0 0.00 0.00 0.00 43 1016.0
20260903021537 19 118 11.3 29.0 0.00 0.00 0.00 42 1015.9
20260903021036 19 89 8.0 25.7 0.00 0.00 0.00 42 1015.8
20260903020537 19 75 6.4 16.1 0.00 0.00 0.00 42 1015.8
20260903020035 19 86 6.4 22.5 0.00 0.00 0.00 42 1015.7
20260903015800 19 128 14.5 22.5 0.00 0.00 0.00 42 1015.8
20260903015305 19 120 6.4 14.5 0.00 0.00 0.00 42 1015.9
20260903014538 19 87 6.4 14.5 0.00 0.00 0.00 42 1015.8
20260903014036 19 111 6.4 19.3 0.00 0.00 0.00 42 1015.8
20260903013537 20 110 8.0 19.3 0.00 0.00 0.00 42 1015.8
20260903013036 20 109 8.0 20.9 0.00 0.00 0.00 42 1015.8
20260903013028 20 111 6.4 20.9 0.00 0.00 0.00 41 1015.8
20260903012036 20 68 6.4 24.1 0.00 0.00 0.00 40 1015.7
20260903011535 20 148 14.5 24.1 0.00 0.00 0.00 39 1015.7
20260903011036 20 123 4.8 19.3 0.00 0.00 0.00 40 1015.6
20260903010535 20 120 6.4 19.3 0.00 0.00 0.00 39 1015.7
20260903010259 20 138 9.7 19.3 0.00 0.00 0.00 39 1015.6
20260903005535 20 97 9.7 22.5 0.00 0.00 0.00 38 1015.6
20260903005035 20 137 12.9 30.6 0.00 0.00 0.00 38 1015.6
20260903004535 20 93 12.9 30.6 0.00 0.00 0.00 37 1015.5
20260903004035 20 87 16.1 29.0 0.00 0.00 0.00 37 1015.4
20260903003535 21 182 17.7 30.6 0.00 0.00 0.00 36 1015.5
20260903003033 21 117 14.5 30.6 0.00 0.00 0.00 36 1015.4
20260903002535 21 155 14.5 30.6 0.00 0.00 0.00 36 1015.4
20260903002254 21 100 17.7 33.8 0.00 0.00 0.00 35 1015.3
20260903001535 21 111 16.1 33.8 0.00 0.00 0.00 36 1015.3
20260903001034 21 104 14.5 30.6 0.00 0.00 0.00 36 1015.1
20260903000534 21 80 11.3 29.0 0.00 0.00 0.00 37 1015.3
20260903000033 21 82 14.5 29.0 0.00 0.00 0.00 37 1015.3
20260902235529 21 111 9.7 30.6 0.00 0.00 0.00 37 1015.3
20260902235035 21 78 16.1 30.6 0.00 0.00 0.00 37 1015.3
20260902234533 21 120 9.7 33.8 0.00 0.00 0.00 37 1015.3
20260902234034 21 24 11.3 33.8 0.00 0.00 0.00 37 1015.2
20260902233533 21 121 14.5 30.6 0.00 0.00 0.00 36 1015.1
20260902233035 21 125 14.5 30.6 0.00 0.00 0.00 37 1015.1
20260902232533 21 104 9.7 30.6 0.00 0.00 0.00 36 1015.2
20260902232033 21 118 12.9 24.1 0.00 0.00 0.00 36 1015.1
20260902231532 21 137 9.7 29.0 0.00 0.00 0.00 36 1015.2
20260902231033 21 190 11.3 29.0 0.00 0.00 0.00 35 1015.2
20260902230533 21 110 12.9 25.7 0.00 0.00 0.00 36 1015.2
20260902230031 21 110 12.9 25.7 0.00 0.00 0.00 36 1015.2
20260902225759 21 117 8.0 24.1 0.00 0.00 0.00 36 1015.2
20260902225032 21 87 6.4 19.3 0.00 0.00 0.00 37 1015.2
20260902224800 21 100 9.7 22.5 0.00 0.00 0.00 37 1015.3
20260902224032 22 128 11.3 25.7 0.00 0.00 0.00 37 1015.2
20260902223532 21 25 11.3 27.4 0.00 0.00 0.00 36 1015.3
20260902223029 21 75 14.5 27.4 0.00 0.00 0.00 37 1015.3
20260902222528 21 87 9.7 19.3 0.00 0.00 0.00 39 1015.5
20260902222032 21 110 8.0 19.3 0.00 0.00 0.00 39 1015.6
20260902221531 21 128 8.0 20.9 0.00 0.00 0.00 39 1015.6
20260902221033 21 104 12.9 22.5 0.00 0.00 0.00 39 1015.7
20260902220531 21 116 12.9 25.7 0.00 0.00 0.00 39 1015.8
20260902220030 21 118 9.7 25.7 0.00 0.00 0.00 40 1015.9
20260902215531 21 90 8.0 24.1 0.00 0.00 0.00 39 1015.9
20260902215031 21 151 12.9 32.2 0.00 0.00 0.00 40 1016.0
20260902214531 21 147 11.3 32.2 0.00 0.00 0.00 40 1016.0
20260902214031 21 83 12.9 30.6 0.00 0.00 0.00 41 1016.1
20260902213532 21 147 4.8 20.9 0.00 0.00 0.00 41 1016.3
20260902213031 21 89 9.7 20.9 0.00 0.00 0.00 41 1016.2
20260902212532 21 107 6.4 20.9 0.00 0.00 0.00 42 1016.2
20260902212032 21 79 6.4 19.3 0.00 0.00 0.00 42 1016.3
20260902211530 21 72 8.0 20.9 0.00 0.00 0.00 42 1016.3
20260902211030 21 138 9.7 25.7 0.00 0.00 0.00 42 1016.5
20260902210529 21 62 12.9 27.4 0.00 0.00 0.00 41 1016.4
20260902210514 22 114 11.3 27.4 0.00 0.00 0.00 41 1016.5
20260902210004 22 124 9.7 22.5 0.00 0.00 0.00 41 1016.7
20260902205622 22 127 12.9 22.5 0.00 0.00 0.00 40 1016.5
20260902204529 22 114 11.3 25.7 0.00 0.00 0.00 41 1016.5
20260902204033 22 61 14.5 25.7 0.00 0.00 0.00 42 1016.4
20260902203528 22 102 11.3 24.1 0.00 0.00 0.00 42 1016.4
20260902203029 21 79 9.7 25.7 0.00 0.00 0.00 44 1016.4
20260902202525 21 69 11.3 29.0 0.00 0.00 0.00 45 1016.7
20260902202025 21 114 19.3 29.0 0.00 0.00 0.00 44 1016.8
20260902201529 21 123 14.5 24.1 0.00 0.00 0.00 44 1016.7
20260902201028 21 107 12.9 25.7 0.00 0.00 0.00 46 1016.8
20260902200531 20 68 12.9 25.7 0.00 0.00 0.00 48 1016.8
20260902200028 20 45 4.8 25.7 0.00 0.00 0.00 47 1016.8
20260902195528 20 142 14.5 30.6 0.00 0.00 0.00 47 1017.0
20260902195028 20 138 12.9 30.6 0.00 0.00 0.00 47 1017.1
20260902194524 20 75 12.9 25.7 0.00 0.00 0.00 47 1017.2
20260902194253 20 134 14.5 25.7 0.00 0.00 0.00 48 1017.2
20260902193748 20 73 9.7 25.7 0.00 0.00 0.00 48 1017.2
20260902193025 20 157 9.7 24.1 0.00 0.00 0.00 49 1017.2
20260902192527 20 140 9.7 25.7 0.00 0.00 0.00 49 1017.3
20260902192029 20 79 11.3 25.7 0.00 0.00 0.00 49 1017.3
20260902191527 20 154 11.3 24.1 0.00 0.00 0.00 49 1017.3
20260902191027 20 78 8.0 27.4 0.00 0.00 0.00 50 1017.4
20260902190527 20 124 12.9 27.4 0.00 0.00 0.00 50 1017.4
20260902190023 20 32 11.3 20.9 0.00 0.00 0.00 49 1017.4
20260902185523 20 69 9.7 19.3 0.00 0.00 0.00 49 1017.4
20260902185023 20 127 11.3 19.3 0.00 0.00 0.00 49 1017.4
20260902184524 20 121 4.8 19.3 0.00 0.00 0.00 50 1017.3
20260902184026 20 79 6.4 20.9 0.00 0.00 0.00 50 1017.4
20260902183750 19 135 12.9 20.9 0.00 0.00 0.00 50 1017.5
20260902183026 19 96 8.0 17.7 0.00 0.00 0.00 53 1017.5
20260902182525 19 97 6.4 20.9 0.00 0.00 0.00 56 1017.5
20260902182026 19 200 11.3 20.9 0.00 0.00 0.00 55 1017.4
20260902181526 19 120 9.7 16.1 0.00 0.00 0.00 57 1017.6
20260902181026 19 110 6.4 16.1 0.00 0.00 0.00 58 1017.7
20260902180751 18 135 8.0 14.5 0.00 0.00 0.00 59 1017.7
20260902180024 18 107 3.2 11.3 0.00 0.00 0.00 63 1017.6
20260902175525 18 76 3.2 9.7 0.00 0.00 0.00 66 1017.6
20260902175026 17 111 4.8 9.7 0.00 0.00 0.00 63 1017.7
20260902174525 17 138 8.0 9.7 0.00 0.00 0.00 64 1017.6
20260902174025 17 80 3.2 6.4 0.00 0.00 0.00 66 1017.5
20260902173526 17 93 3.2 4.8 0.00 0.00 0.00 66 1017.5
20260902173025 17 123 0.0 1.6 0.00 0.00 0.00 65 1017.5
20260902172751 17 149 0.0 1.6 0.00 0.00 0.00 66 1017.4
20260902172240 17 151 1.6 1.6 0.00 0.00 0.00 66 1017.4
20260902171522 17 59 0.0 0.0 0.00 0.00 0.00 67 1017.5
20260902171025 17 144 0.0 3.2 0.00 0.00 0.00 70 1017.6
20260902170525 16 111 0.0 3.2 0.00 0.00 0.00 72 1017.7
20260902170023 16 110 0.0 3.2 0.00 0.00 0.00 74 1017.7
20260902165524 16 71 0.0 6.4 0.00 0.00 0.00 72 1017.4
20260902165024 16 83 3.2 6.4 0.00 0.00 0.00 73 1017.5
20260902164524 16 85 0.0 4.8 0.00 0.00 0.00 73 1017.6
20260902164024 16 78 0.0 4.8 0.00 0.00 0.00 72 1017.6
20260902163743 16 93 3.2 4.8 0.00 0.00 0.00 73 1017.6
20260902163025 16 56 0.0 3.2 0.00 0.00 0.00 74 1017.5
20260902162523 16 31 0.0 3.2 0.00 0.00 0.00 73 1017.4
20260902162023 16 245 0.0 0.0 0.00 0.00 0.00 71 1017.4
20260902161744 16 243 0.0 0.0 0.00 0.00 0.00 73 1017.5
20260902161626 16 243 0.0 0.0 0.00 0.00 0.00 74 1017.5
20260902160525 16 243 0.0 0.0 0.00 0.00 0.00 75 1017.6
20260902160023 15 243 0.0 1.6 0.00 0.00 0.00 77 1017.7
20260902155751 15 61 0.0 1.6 0.00 0.00 0.00 78 1017.6
20260902155022 15 61 0.0 1.6 0.00 0.00 0.00 83 1017.7
20260902154757 14 61 0.0 1.6 0.00 0.00 0.00 82 1017.7
20260902154022 14 61 0.0 0.0 0.00 0.00 0.00 82 1017.8
20260902153522 14 61 0.0 0.0 0.00 0.00 0.00 83 1017.9
20260902153244 14 61 0.0 0.0 0.00 0.00 0.00 82 1017.9
20260902152522 14 61 0.0 1.6 0.00 0.00 0.00 82 1017.9
20260902152023 14 61 0.0 4.8 0.00 0.00 0.00 83 1017.6
20260902151522 14 61 1.6 4.8 0.00 0.00 0.00 84 1017.8
20260902151023 14 199 0.0 1.6 0.00 0.00 0.00 84 1017.8
20260902150522 14 188 0.0 0.0 0.00 0.00 0.00 83 1017.9
20260902150023 13 188 0.0 0.0 0.00 0.00 0.00 85 1017.9
20260902145521 13 182 0.0 0.0 0.00 0.00 0.00 86 1017.9
20260902145242 13 245 0.0 0.0 0.00 0.00 0.00 88 1017.9
20260902144521 12 245 0.0 0.0 0.00 0.00 0.00 88 1018.0
20260902144021 12 245 0.0 0.0 0.00 0.00 0.00 89 1018.3
20260902143521 12 221 0.0 0.0 0.00 0.00 0.00 88 1018.4
20260902143021 12 149 0.0 0.0 0.00 0.00 0.00 87 1018.4
20260902142522 12 148 0.0 0.0 0.00 0.00 0.00 87 1018.0
20260902142021 12 161 0.0 3.2 0.00 0.00 0.00 87 1018.3
20260902141746 12 216 0.0 4.8 0.00 0.00 0.00 87 1018.0
20260902141021 12 183 3.2 4.8 0.00 0.00 0.00 87 1017.9
20260902140750 12 158 0.0 3.2 0.00 0.00 0.00 87 1017.8
20260902140021 12 172 0.0 1.6 0.00 0.00 0.00 88 1017.8
20260902135739 12 235 0.0 1.6 0.00 0.00 0.00 88 1018.0
20260902135021 12 321 0.0 0.0 0.00 0.00 0.00 86 1018.0
20260902134520 12 321 0.0 0.0 0.00 0.00 0.00 85 1018.4
20260902134021 12 173 0.0 0.0 0.00 0.00 0.00 84 1018.3
20260902133520 12 173 0.0 3.2 0.00 0.00 0.00 84 1018.5
20260902133021 12 73 0.0 6.4 0.00 0.00 0.00 83 1018.5
20260902132519 12 62 0.0 6.4 0.00 0.00 0.00 84 1018.5
20260902132020 12 144 3.2 6.4 0.00 0.00 0.00 86 1018.4
20260902131519 12 169 0.0 0.0 0.00 0.00 0.00 86 1017.8
20260902131019 12 252 0.0 3.2 0.00 0.00 0.00 84 1017.5
20260902130518 12 255 0.0 6.4 0.00 0.00 0.00 84 1017.5
20260902130019 12 329 0.0 8.0 0.00 0.00 0.00 83 1017.7
20260902125520 12 133 4.8 8.0 0.00 0.00 0.00 82 1017.8
20260902125018 13 147 3.2 6.4 0.00 0.00 0.00 82 1017.6
20260902124520 13 114 0.0 1.6 0.00 0.00 0.00 79 1017.4
20260902124019 13 117 0.0 0.0 0.00 0.00 0.00 77 1018.0
20260902123737 13 117 0.0 6.4 0.00 0.00 0.00 76 1018.3
20260902123244 13 120 1.6 6.4 0.00 0.00 0.00 72 1018.4
20260902122518 13 158 1.6 4.8 0.00 0.00 0.00 73 1018.3
20260902122019 13 168 1.6 4.8 0.00 0.00 0.00 73 1018.3
20260902121518 13 159 1.6 4.8 0.00 0.00 0.00 74 1017.8
20260902121019 13 219 0.0 4.8 0.00 0.00 0.00 77 1017.8
20260902120518 13 161 3.2 4.8 0.00 0.00 0.00 75 1017.8
20260902120017 13 90 0.0 3.2 0.00 0.00 0.00 76 1017.8
20260902115517 13 87 0.0 4.8 0.00 0.00 0.00 77 1017.7
20260902115017 13 166 3.2 4.8 0.00 0.00 0.00 79 1017.6
20260902114517 13 250 3.2 4.8 0.00 0.00 0.00 77 1017.4
20260902114017 13 120 0.0 0.0 0.00 0.00 0.00 73 1017.4
20260902113518 13 120 0.0 0.0 0.00 0.00 0.00 74 1017.7
20260902113017 13 202 0.0 1.6 0.00 0.00 0.00 73 1017.6
20260902112738 13 196 0.0 1.6 0.00 0.00 0.00 72 1017.6
20260902112017 14 213 0.0 0.0 0.00 0.00 0.00 74 1017.7
20260902111516 14 107 0.0 0.0 0.00 0.00 0.00 77 1017.8
20260902111017 14 199 0.0 3.2 0.00 0.00 0.00 76 1017.8
20260902110517 14 203 0.0 3.2 0.00 0.00 0.00 75 1017.7
20260902110017 14 190 0.0 0.0 0.00 0.00 0.00 79 1017.7
20260902105515 14 292 0.0 0.0 0.00 0.00 0.00 78 1017.7
20260902105017 14 292 0.0 0.0 0.00 0.00 0.00 78 1017.7
20260902104516 14 292 0.0 0.0 0.00 0.00 0.00 77 1017.7
20260902104018 14 292 0.0 0.0 0.00 0.00 0.00 77 1017.7
20260902103516 14 292 0.0 1.6 0.00 0.00 0.00 77 1017.7
20260902103016 14 292 0.0 1.6 0.00 0.00 0.00 76 1017.8
20260902102516 14 292 0.0 1.6 0.00 0.00 0.00 75 1017.9
20260902102015 14 97 0.0 0.0 0.00 0.00 0.00 74 1017.8
20260902101516 14 199 0.0 0.0 0.00 0.00 0.00 73 1017.8
20260902101016 14 199 0.0 0.0 0.00 0.00 0.00 74 1017.9
20260902100515 15 216 0.0 1.6 0.00 0.00 0.00 74 1018.0
20260902100015 15 209 0.0 1.6 0.00 0.00 0.00 74 1018.2
20260902095736 15 162 0.0 0.0 0.00 0.00 0.00 74 1018.2
20260902095014 15 162 0.0 0.0 0.00 0.00 0.00 75 1018.2
20260902094515 15 162 0.0 0.0 0.00 0.00 0.00 76 1018.4
20260902094014 15 162 0.0 0.0 0.00 0.00 0.00 75 1018.4
20260902093514 15 162 0.0 0.0 0.00 0.00 0.00 72 1018.5
20260902093015 15 162 0.0 0.0 0.00 0.00 0.00 71 1018.6
20260902092732 15 162 0.0 0.0 0.00 0.00 0.00 70 1018.6
20260902092015 15 162 0.0 1.6 0.00 0.00 0.00 74 1018.7
20260902091514 15 162 0.0 1.6 0.00 0.00 0.00 74 1018.6
20260902091016 15 68 0.0 0.0 0.00 0.00 0.00 74 1018.8
20260902090513 16 68 0.0 3.2 0.00 0.00 0.00 73 1018.8
20260902090241 16 68 0.0 3.2 0.00 0.00 0.00 73 1018.9
20260902085514 16 93 0.0 0.0 0.00 0.00 0.00 71 1018.9
20260902085013 16 178 0.0 0.0 0.00 0.00 0.00 72 1018.8
20260902084513 16 300 0.0 3.2 0.00 0.00 0.00 72 1018.7
20260902084012 16 290 0.0 3.2 0.00 0.00 0.00 73 1018.8
20260902083514 16 302 0.0 1.6 0.00 0.00 0.00 74 1018.8
20260902083013 16 292 0.0 1.6 0.00 0.00 0.00 74 1018.8
20260902082741 15 23 0.0 0.0 0.00 0.00 0.00 75 1018.8
20260902082013 15 23 0.0 0.0 0.00 0.00 0.00 75 1018.7
20260902081512 16 316 0.0 0.0 0.00 0.00 0.00 75 1018.8
20260902081013 16 316 0.0 0.0 0.00 0.00 0.00 75 1018.7
20260902080737 16 316 0.0 0.0 0.00 0.00 0.00 75 1018.7
20260902080013 15 316 0.0 0.0 0.00 0.00 0.00 75 1018.9
20260902075512 16 316 0.0 0.0 0.00 0.00 0.00 75 1018.8
20260902075013 16 316 0.0 0.0 0.00 0.00 0.00 75 1018.8
20260902074735 16 316 0.0 0.0 0.00 0.00 0.00 74 1018.8
20260902074241 16 316 0.0 0.0 0.00 0.00 0.00 73 1018.8
20260902073734 16 316 0.0 0.0 0.00 0.00 0.00 72 1018.8
20260902073011 16 316 0.0 0.0 0.00 0.00 0.00 70 1018.7
20260902072512 17 316 0.0 4.8 0.00 0.00 0.00 68 1018.7
20260902072012 17 244 0.0 4.8 0.00 0.00 0.00 68 1018.6
20260902072000 17 266 0.0 4.8 0.00 0.00 0.00 68 1018.6
20260902071011 17 259 0.0 4.8 0.00 0.00 0.00 67 1018.5
20260902070512 17 313 1.6 4.8 0.00 0.00 0.00 68 1018.6
20260902070011 17 334 0.0 6.4 0.00 0.00 0.00 68 1018.6
20260902065512 17 295 0.0 6.4 0.00 0.00 0.00 67 1018.6
20260902065012 17 329 0.0 4.8 0.00 0.00 0.00 66 1018.5
20260902064511 17 248 0.0 11.3 0.00 0.00 0.00 66 1018.5
20260902064232 17 1 1.6 11.3 0.00 0.00 0.00 65 1018.4
20260902063732 17 285 3.2 14.5 0.00 0.00 0.00 65 1018.5
20260902063011 17 305 0.0 14.5 0.00 0.00 0.00 65 1018.4
20260902062510 17 296 1.6 6.4 0.00 0.00 0.00 65 1018.5
20260902062012 17 292 1.6 4.8 0.00 0.00 0.00 65 1018.5
20260902061510 17 333 0.0 4.8 0.00 0.00 0.00 64 1018.4
20260902061011 17 290 1.6 3.2 0.00 0.00 0.00 64 1018.5
20260902060509 17 298 0.0 3.2 0.00 0.00 0.00 63 1018.5
20260902060009 18 312 0.0 6.4 0.00 0.00 0.00 63 1018.5
20260902055510 18 293 0.0 6.4 0.00 0.00 0.00 63 1018.5
20260902055234 18 323 4.8 6.4 0.00 0.00 0.00 62 1018.5
20260902054510 18 321 3.2 4.8 0.00 0.00 0.00 59 1018.6
20260902054010 18 329 1.6 6.4 0.00 0.00 0.00 58 1018.6
20260902053513 18 341 0.0 6.4 0.00 0.00 0.00 56 1018.6
20260902053009 18 302 0.0 11.3 0.00 0.00 0.00 56 1018.7
20260902052508 18 282 1.6 11.3 0.00 0.00 0.00 55 1018.7
20260902052018 18 298 0.0 6.4 0.00 0.00 0.00 55 1018.8
20260902051509 19 278 0.0 1.6 0.00 0.00 0.00 54 1018.8
20260902051009 19 275 0.0 3.2 0.00 0.00 0.00 53 1018.7
20260902050734 20 293 0.0 3.2 0.00 0.00 0.00 51 1018.5